RH
5 5 4 4 3 4 3 3 4 4 4 6 6 7 8 9 16 23 21 22 27 38 58 59 45 47 53 46 42 42 40 45 51 48 40 39 41 37 33 33 31 29 26 25 30 34 35 36 35 38 43 44 45 46 43 42 43 43 44 43 43 43 41 38 34 30 30 28 27 26 25 25 26 26 26 26 26 26 25 24 27 26 25 28 21 21 36
5 4 3 4 3 4 4 4 4 4 6 8 6 9 12 14 23 31 35 39 41 49 62 60 54 58 59 55 52 46 43 46 50 51 45 42 42 40 39 35 28 26 22 18 26 32 34 38 37 37 45 43 39 43 45 46 47 47 46 45 46 49 47 42 35 31 32 32 28 28 26 26 29 29 26 25 25 26 25 26 27 24 25 26 17 26 44
5 3 4 4 3 4 4 4 5 6 8 8 8 11 15 25 38 38 40 52 57 63 68 60 55 54 55 63 60 49 46 38 35 46 44 32 30 35 38 32 22 20 17 16 23 27 31 41 42 39 44 42 38 42 45 47 48 47 47 46 46 49 50 46 41 38 37 36 32 31 30 29 29 27 24 23 23 24 24 24 24 23 28 27 19 31 47
4 4 4 3 3 4 4 4 5 6 9 8 10 14 16 32 46 42 45 60 66 73 77 70 64 53 51 64 55 43 54 47 28 34 41 36 33 33 33 31 26 24 23 28 32 27 29 41 44 44 47 44 42 45 46 47 47 46 48 49 47 48 50 49 48 46 44 41 37 34 34 33 32 29 26 26 25 23 25 26 24 23 28 30 27 33 44
4 4 4 4 4 4 4 5 4 6 9 8 11 15 16 26 37 37 51 67 68 73 75 73 77 70 61 69 61 47 59 64 48 43 47 49 47 41 37 35 35 33 31 40 43 32 31 39 39 43 48 45 43 45 46 47 46 44 47 49 49 52 55 54 52 49 46 43 37 32 34 38 38 35 31 29 27 27 32 34 32 31 30 31 35 39 44
4 4 4 4 5 5 5 5 4 5 9 7 10 15 15 22 33 38 50 62 65 74 76 71 79 84 78 74 69 64 67 69 64 57 54 55 51 48 47 40 39 39 36 44 49 41 39 40 36 40 48 47 46 46 45 47 47 45 46 48 49 55 61 61 59 56 52 49 45 38 36 38 37 35 33 30 28 29 34 34 33 36 36 36 45 48 42
5 4 5 5 5 6 6 6 5 5 7 7 9 13 13 17 27 36 44 49 56 73 86 87 88 90 90 81 70 71 71 68 68 64 61 62 56 52 53 45 42 43 41 47 51 47 48 46 39 43 48 48 51 50 47 49 51 50 49 50 52 59 66 65 64 65 63 61 60 52 45 42 39 39 38 35 32 30 29 29 29 31 34 36 40 41 34
5 5 5 5 5 6 7 7 8 8 8 9 9 11 12 13 16 26 37 41 53 77 93 99 97 92 91 84 72 71 69 65 68 66 62 65 60 54 54 50 47 48 47 49 49 46 48 48 45 47 48 48 52 53 51 51 53 55 54 53 54 60 65 65 67 74 75 72 69 63 57 52 47 46 44 43 45 40 32 30 30 30 31 31 31 33 35
6 6 5 5 6 6 7 8 9 10 10 11 12 11 11 13 12 19 30 33 46 76 92 97 100 96 90 83 73 69 67 63 65 66 62 64 63 59 57 54 54 53 49 48 48 47 47 47 47 49 49 48 49 48 48 49 51 57 58 55 57 60 62 67 73 77 78 77 74 69 66 62 58 56 52 51 53 50 43 39 40 39 36 35 37 39 40
7 7 6 6 6 6 7 9 9 11 11 11 13 13 12 16 14 14 26 30 36 62 82 86 93 97 95 93 83 73 70 67 66 67 64 62 63 63 61 60 62 63 56 51 52 52 51 50 50 50 48 48 48 47 49 49 50 56 58 57 62 62 60 67 72 69 70 74 70 68 71 71 66 63 58 55 54 53 50 49 49 48 45 42 45 44 38
8 8 6 6 7 6 7 9 9 11 12 11 13 13 12 16 15 13 27 34 34 50 65 66 74 82 84 89 89 84 82 76 68 66 67 66 64 63 62 61 62 64 63 61 58 57 57 55 53 53 51 50 49 47 47 48 47 50 53 57 64 64 62 69 70 65 72 77 70 71 76 73 69 65 60 58 59 58 57 55 55 56 55 51 50 46 39
9 9 8 7 7 7 7 9 10 10 12 11 12 13 12 14 14 15 27 33 32 43 51 51 60 69 67 71 79 83 87 87 81 78 76 73 69 66 65 63 59 58 59 60 62 62 63 62 58 57 56 54 53 50 49 48 47 47 50 56 61 60 62 70 70 67 77 83 76 75 77 71 67 65 60 59 64 63 60 58 56 54 54 50 47 46 42
10 10 10 8 8 9 8 9 10 10 11 12 12 13 13 14 14 15 22 24 26 36 42 39 44 55 61 66 67 67 73 79 83 84 82 78 75 72 69 66 62 58 55 55 57 58 61 63 63 63 61 59 58 55 52 51 52 54 56 58 60 59 60 64 65 68 75 77 73 71 71 67 63 59 56 58 62 61 58 55 51 45 44 43 40 40 39
12 11 11 10 9 9 9 9 10 11 12 13 13 13 13 13 13 15 17 18 18 25 31 29 29 39 51 57 58 62 68 71 73 74 69 67 70 66 61 59 59 58 57 56 56 55 55 57 60 61 61 61 61 60 57 56 57 58 58 59 61 64 64 61 61 66 66 63 63 65 66 66 61 54 52 52 54 55 53 51 50 45 44 45 43 43 44
13 12 12 11 11 10 10 10 10 10 12 12 13 14 13 12 13 13 15 18 17 18 22 23 24 30 40 45 49 56 63 64 67 71 64 53 48 45 45 47 46 46 49 51 53 54 53 52 51 51 52 52 53 55 56 55 55 56 57 59 59 61 66 67 63 64 61 56 57 58 58 62 58 49 47 48 48 50 49 50 54 51 46 48 50 51 55
14 13 13 12 12 12 11 11 10 10 11 12 13 13 13 13 13 12 13 18 19 17 17 18 19 21 27 32 35 37 39 40 47 62 66 50 33 29 33 36 36 35 35 38 42 45 48 50 48 45 46 49 49 51 53 53 55 55 54 55 55 57 67 72 67 63 62 58 54 52 55 64 62 51 48 49 49 52 52 54 61 59 52 53 58 61 67
14 14 14 13 13 13 12 12 12 11 11 12 12 13 13 12 12 13 14 15 15 14 15 17 18 19 20 22 22 22 23 23 26 37 43 33 22 22 25 25 28 30 28 31 38 43 45 47 47 44 47 51 52 52 53 55 59 59 56 56 58 59 65 69 65 63 65 61 54 53 62 69 63 54 53 53 53 58 58 57 62 64 59 58 65 72 78
15 14 14 14 14 14 14 13 13 13 13 13 13 13 13 12 12 14 15 15 13 12 14 15 15 16 16 17 18 17 17 19 19 19 23 25 22 21 20 19 22 27 29 33 41 48 49 48 48 49 50 51 53 55 56 60 65 65 62 61 59 58 60 62 60 60 63 62 57 58 69 72 63 59 61 59 59 62 61 60 66 66 61 60 68 76 82
15 14 14 14 14 14 14 14 14 14 14 14 14 13 13 13 13 14 15 15 14 13 15 15 13 13 14 14 16 17 16 18 18 16 24 31 26 22 28 31 29 32 36 38 43 48 52 53 54 54 52 52 58 61 60 63 66 65 64 62 60 60 59 56 58 60 62 63 59 60 72 77 68 63 65 64 66 68 66 66 68 65 61 63 70 78 84
13 13 13 13 13 13 13 14 15 15 15 15 15 15 14 14 14 14 15 15 14 14 14 14 13 13 12 11 14 15 15 18 18 16 21 25 23 31 47 47 39 39 40 43 48 50 52 59 61 56 54 58 61 60 60 63 63 63 67 68 66 64 60 56 62 66 62 56 53 60 77 82 72 70 75 75 76 76 73 71 69 67 69 72 76 82 87
13 12 11 11 11 12 13 13 14 15 16 16 16 15 16 16 15 15 15 14 15 16 16 16 15 14 14 12 11 12 14 16 17 17 19 21 23 34 43 39 36 41 41 46 56 54 52 61 65 58 58 62 59 59 62 64 63 61 63 66 66 63 62 65 71 72 66 61 62 71 84 85 76 77 82 81 79 78 79 78 74 73 76 79 82 86 89
13 12 11 12 11 11 11 12 13 15 15 16 17 17 17 17 16 17 17 16 16 17 17 17 17 16 16 15 12 11 12 12 14 15 17 20 20 22 25 27 33 38 39 48 63 63 59 65 66 61 61 60 58 62 61 57 61 64 61 63 66 64 63 70 75 75 76 79 79 81 83 81 77 79 81 81 82 82 83 85 81 76 77 78 80 84 87
12 12 12 12 12 12 12 12 12 14 14 15 16 17 18 19 18 18 19 18 18 19 19 20 21 21 20 18 16 15 13 12 13 12 12 22 30 25 21 24 28 31 35 46 59 62 61 64 64 64 64 59 58 62 59 53 61 68 63 61 62 59 61 71 78 78 79 84 86 85 85 84 83 83 84 86 90 89 87 87 84 80 79 79 79 82 85
13 13 12 12 12 12 13 13 13 14 14 15 16 17 18 19 19 20 21 20 20 22 23 25 27 26 24 23 22 22 19 16 16 12 9 19 34 33 25 21 23 26 30 37 44 50 56 58 58 59 61 57 56 57 57 59 65 66 63 63 62 58 59 68 75 77 82 92 96 95 94 94 93 93 94 94 96 98 97 95 93 91 88 86 87 87 87
14 13 13 14 14 13 13 13 14 15 15 15 16 16 17 19 19 21 22 22 22 25 27 30 30 27 26 28 28 26 26 23 21 20 16 14 19 23 20 16 18 21 23 26 33 44 56 61 63 64 59 53 57 63 61 61 61 59 63 70 68 61 60 64 71 77 85 94 96 91 89 89 88 93 98 94 89 89 90 89 87 87 85 82 81 81 79
15 15 15 15 15 15 15 14 14 15 16 16 16 16 17 18 19 21 23 24 24 26 29 31 32 30 31 34 32 28 29 29 26 25 24 19 16 16 14 13 16 15 16 22 26 33 48 59 67 72 65 55 58 66 64 64 65 64 68 72 66 62 65 68 73 79 85 87 84 79 78 77 73 76 81 79 72 69 68 68 67 64 64 63 60 59 59
16 16 16 16 16 16 16 15 15 15 16 16 17 17 17 18 19 20 22 24 26 29 33 35 34 34 36 37 35 32 33 35 33 31 29 24 20 19 18 19 18 13 17 27 29 33 51 60 58 59 60 56 57 61 62 68 72 70 71 71 64 63 69 71 71 75 80 83 81 75 76 81 81 77 71 65 62 60 57 56 55 52 51 50 48 46 46
17 17 17 16 16 16 15 16 15 15 16 17 17 18 18 18 19 20 22 24 26 30 34 34 34 39 44 43 39 36 37 38 38 38 36 29 26 26 25 24 21 18 21 32 41 50 63 63 55 55 58 56 57 60 60 62 63 65 72 73 67 67 72 72 71 73 77 86 88 80 79 87 88 80 68 57 54 55 51 48 48 46 44 44 42 40 39
17 18 17 16 16 16 16 16 16 16 17 17 17 18 19 19 20 21 22 24 27 28 31 34 38 43 47 46 43 41 39 40 41 41 40 36 33 34 33 32 30 25 20 26 41 53 53 44 43 52 53 49 55 62 60 56 58 66 72 67 59 62 65 66 71 73 76 87 90 77 72 77 72 61 55 51 47 46 44 42 42 40 39 38 37 36 35
17 17 17 16 17 17 16 17 17 16 16 18 18 20 20 20 22 23 22 24 26 27 31 40 46 45 41 42 45 44 40 42 44 44 42 40 38 37 38 40 39 35 32 36 42 45 42 36 35 37 34 34 46 60 58 52 59 73 76 66 61 65 65 64 70 72 72 78 77 63 58 61 55 47 45 44 42 42 41 40 39 37 36 35 33 31 29
17 17 17 16 16 16 15 16 16 15 16 17 19 20 21 21 23 25 24 25 26 28 32 39 44 45 41 41 44 44 42 44 46 44 43 42 42 41 41 43 44 45 49 52 46 40 43 47 48 48 42 34 41 55 55 49 55 72 82 81 76 74 69 65 66 65 62 60 57 51 49 46 43 45 48 46 42 42 41 40 39 38 36 33 29 28 30
17 17 16 16 16 14 14 15 17 19 20 19 20 21 21 22 23 25 27 27 26 30 35 36 39 46 49 46 42 42 46 48 45 44 46 44 42 45 46 45 47 49 50 51 50 47 44 41 47 57 53 39 42 57 57 49 53 67 82 90 87 77 70 66 61 57 54 49 48 52 51 40 30 34 40 38 34 33 32 33 34 32 30 29 29 33 37
17 15 15 15 15 16 20 24 30 33 29 24 24 22 20 22 25 27 28 28 27 33 37 35 37 44 49 50 48 47 52 56 54 54 56 48 42 48 51 46 45 50 51 52 53 51 45 41 47 55 48 37 46 61 57 51 57 64 70 81 86 79 71 65 59 54 50 43 42 48 51 42 31 26 25 24 24 26 26 27 28 27 29 33 36 41 44
14 14 17 20 24 32 38 40 42 41 34 27 24 22 21 24 25 26 28 27 30 38 39 35 40 46 48 54 59 55 53 59 60 59 59 52 44 47 51 50 50 53 56 56 52 50 51 52 53 56 50 42 48 57 54 56 64 62 55 60 67 66 63 60 57 54 48 42 41 44 46 45 40 33 25 21 21 23 25 28 32 35 39 42 43 45 47
20 25 30 36 42 48 48 44 41 37 30 25 23 21 22 24 23 25 29 28 33 43 41 36 44 55 58 63 69 61 55 58 58 53 52 52 49 47 49 56 62 59 54 54 55 59 62 55 49 56 60 53 50 54 55 58 64 63 57 54 53 53 59 64 61 54 48 45 44 46 49 50 47 40 31 23 20 25 32 38 42 44 45 46 48 50 51
37 42 46 49 51 48 42 37 34 29 25 24 22 20 22 23 23 26 31 33 38 44 40 39 51 62 64 66 66 60 58 63 64 59 54 54 55 51 49 57 65 59 50 53 60 64 63 54 50 59 63 55 53 60 62 62 67 69 67 64 58 57 67 74 68 57 50 48 47 50 53 54 48 41 34 26 26 34 43 45 45 47 49 51 51 50 50
49 51 52 51 47 40 33 29 26 24 22 22 21 21 22 24 27 32 36 39 44 43 41 49 59 59 58 63 65 61 62 67 70 71 67 61 60 57 53 57 62 56 52 58 62 59 56 52 53 61 63 58 60 65 63 61 63 63 62 60 55 53 58 62 58 52 51 51 51 52 55 53 44 35 29 30 35 43 47 47 50 53 53 49 45 41 41
48 49 48 45 37 30 26 25 23 23 23 22 22 24 25 27 32 39 42 46 49 46 46 58 64 56 55 66 70 65 63 67 72 75 72 67 66 65 62 61 61 57 58 62 58 53 53 53 52 56 60 62 63 62 55 51 53 53 53 53 50 48 50 52 53 54 55 55 55 55 55 50 37 26 25 35 44 48 50 53 55 51 43 36 31 28 27
44 44 41 36 29 25 25 26 25 26 27 27 26 28 32 35 42 47 50 52 53 52 56 64 65 57 59 72 77 69 61 63 74 80 78 73 72 71 68 67 64 60 62 64 59 54 58 60 57 54 55 59 63 60 52 49 52 53 52 53 52 51 52 54 56 56 57 58 59 59 56 46 29 21 28 42 49 53 55 54 48 38 29 23 19 17 17
41 39 35 30 27 27 28 29 31 32 34 34 34 35 40 45 47 50 55 58 58 58 62 66 64 60 59 67 75 72 64 63 70 76 78 77 71 66 68 72 67 63 66 68 63 59 61 64 63 58 55 59 64 60 51 49 52 52 51 53 55 55 55 57 58 57 59 61 60 58 54 41 24 24 39 51 55 57 55 45 34 26 19 15 13 13 13
37 35 32 29 30 32 33 34 37 39 38 39 42 43 45 48 48 51 60 66 64 61 61 63 70 73 68 61 64 69 68 65 62 64 73 77 70 65 70 72 66 65 71 71 65 64 66 68 66 62 60 63 64 58 51 52 53 52 52 55 57 58 58 58 58 58 61 61 57 55 53 39 24 30 50 59 58 55 47 33 24 19 14 11 12 11 10
36 33 33 33 35 37 38 39 42 42 41 43 45 46 48 51 52 55 61 65 63 63 63 64 70 74 67 59 61 67 67 65 64 71 81 82 71 66 70 68 63 69 75 71 68 72 73 71 67 66 67 69 64 57 55 55 55 55 58 59 60 61 61 61 62 63 64 61 57 56 53 39 27 36 55 63 58 50 38 25 18 15 11 9 11 9 8
37 35 36 38 39 40 41 44 44 43 42 44 46 48 52 54 55 57 61 61 61 65 66 63 63 66 67 67 70 71 69 68 72 82 90 86 76 73 75 72 71 75 75 71 74 78 75 71 70 70 70 69 64 60 61 61 58 58 62 62 61 62 63 64 66 66 65 62 58 57 53 39 28 38 58 64 56 43 30 21 16 12 9 10 10 8 8
40 39 41 43 44 42 44 48 48 45 44 44 44 49 55 58 59 64 70 67 64 66 66 60 59 69 77 77 73 74 78 79 78 83 90 89 84 85 87 84 81 79 75 75 80 80 74 71 73 72 71 70 65 63 64 65 63 63 65 64 63 63 64 66 67 65 64 63 60 58 52 37 26 38 60 65 53 38 27 19 13 10 9 9 8 7 8
44 46 47 49 49 47 48 49 48 46 46 45 44 51 60 63 63 67 69 63 59 64 67 63 61 70 81 82 76 77 86 90 88 89 94 94 93 95 94 88 84 83 83 83 83 79 75 74 76 76 76 74 68 65 64 64 64 66 67 66 67 67 66 67 66 64 62 62 61 61 52 33 22 38 62 65 51 36 26 16 11 10 10 9 8 7 8
48 49 51 53 54 52 52 52 51 51 52 52 51 56 63 64 63 63 63 62 62 66 70 69 65 70 82 88 86 84 88 93 94 95 95 95 97 97 91 85 87 93 94 89 84 81 78 77 78 80 80 75 71 71 69 64 64 66 66 65 68 69 68 68 66 63 61 61 64 67 58 35 22 39 64 67 53 38 25 15 11 10 9 9 8 8 7
50 51 54 57 58 57 57 57 57 58 58 58 58 60 61 62 63 62 62 63 65 67 69 70 71 73 79 83 85 90 95 95 95 96 96 96 100 100 92 88 93 96 92 86 83 81 80 82 86 88 84 78 78 82 78 71 69 69 66 64 66 67 67 67 65 63 63 62 64 69 66 44 27 39 63 69 55 40 27 17 11 10 9 9 9 8 8
53 55 59 62 63 64 62 61 62 64 63 61 61 61 59 61 66 66 62 61 63 64 68 73 79 84 87 85 84 91 97 94 91 94 95 95 99 101 96 93 94 92 86 83 81 79 82 90 96 95 89 83 82 82 79 74 73 74 71 69 69 68 68 68 66 64 66 67 66 70 71 56 37 41 62 72 61 44 31 21 13 10 10 10 9 9 9
56 57 60 62 65 68 67 66 72 79 75 68 66 66 64 67 73 71 66 65 68 69 71 74 78 84 90 89 86 90 96 97 96 97 96 94 98 101 99 96 94 91 87 86 83 80 84 90 93 92 90 85 78 73 71 71 73 75 74 73 73 72 71 71 68 67 70 73 71 71 73 66 48 43 59 73 67 50 37 27 18 13 11 10 9 10 11
65 65 67 68 72 76 76 76 85 93 89 80 77 76 73 74 78 74 70 71 73 72 75 81 83 83 86 87 87 91 96 97 98 100 99 97 100 101 98 94 93 93 93 93 88 83 82 83 81 81 84 84 78 73 68 67 72 77 77 76 77 79 77 76 75 74 76 79 77 74 75 73 58 47 55 72 73 58 44 34 26 18 14 11 9 10 10
78 78 78 78 80 84 85 86 92 99 98 94 90 85 78 77 78 75 73 74 74 75 83 91 91 87 88 91 94 97 98 97 97 99 100 98 100 101 98 96 97 98 99 95 86 81 83 83 77 74 78 83 85 83 74 66 68 75 76 74 77 82 85 86 85 80 77 79 80 77 78 77 65 50 51 67 76 70 56 45 35 27 20 15 12 10 10
86 86 85 81 80 83 86 88 90 94 95 94 91 86 81 80 80 77 74 74 75 80 88 90 86 86 93 99 99 98 98 98 98 97 96 95 97 98 98 97 97 94 90 85 79 79 84 83 76 72 75 80 84 85 80 71 70 76 79 76 76 81 87 92 94 90 84 82 82 81 81 81 74 61 53 58 69 75 71 60 47 36 28 22 18 15 12
Wind_Speed
16 17 17 17 17 17 17 17 16 16 15 16 17 16 14 11 7 6 6 3 2 2 5 9 12 13 15 18 18 18 18 14 10 10 11 12 12 14 15 14 13 13 13 12 10 8 9 9 10 10 8 11 16 17 18 18 15 12 13 16 19 18 14 15 16 13 10 11 15 18 20 22 20 20 22 21 20 21 21 15 9 11 13 13 12 8 6
16 16 17 17 17 17 17 17 16 15 15 15 16 15 14 12 9 7 6 3 1 2 5 7 8 11 13 13 12 14 14 13 11 10 10 11 11 11 12 14 14 15 15 14 12 10 10 8 9 9 8 10 14 15 17 21 22 21 19 19 21 17 12 14 15 12 11 12 12 13 16 17 16 17 22 24 22 22 24 20 14 13 14 15 13 6 6
15 16 16 17 17 17 16 16 15 14 14 14 15 16 15 12 9 7 6 3 1 4 7 7 7 10 11 10 9 11 12 14 14 11 11 13 13 11 12 13 14 15 15 14 13 13 12 9 8 9 10 11 12 12 14 17 21 23 21 22 23 18 12 12 11 8 9 10 8 10 13 15 15 18 20 22 23 23 22 20 18 16 14 16 16 7 9
15 16 16 17 17 17 16 15 14 12 13 14 15 16 15 11 8 8 7 4 2 1 5 7 8 10 10 10 12 12 10 12 14 13 12 12 12 13 13 12 13 13 14 13 13 14 13 11 9 8 9 12 13 12 13 15 18 19 18 20 23 21 16 13 10 6 4 2 3 8 13 11 10 12 15 18 21 22 20 18 19 17 13 15 15 9 13
14 15 16 17 17 17 16 15 13 12 12 13 13 15 14 11 9 9 8 5 5 4 2 4 7 12 13 11 12 13 12 11 11 13 13 12 11 12 13 14 14 14 14 13 12 14 14 14 14 11 11 14 15 14 13 13 14 15 15 17 21 21 19 17 13 6 1 3 3 10 14 12 11 11 12 13 15 17 16 14 13 12 12 11 11 10 14
14 14 16 17 17 17 17 15 14 13 12 12 13 14 12 11 11 10 9 8 7 7 5 4 2 8 15 14 11 11 12 12 12 12 12 11 12 11 11 14 15 14 15 13 12 13 13 14 17 15 14 13 11 13 14 13 12 12 13 14 16 18 20 21 19 13 5 3 3 6 10 12 13 13 11 11 11 12 11 8 6 8 8 6 10 13 14
14 14 15 16 17 17 17 16 15 14 13 12 13 12 10 10 10 9 9 9 9 9 7 5 5 2 11 14 12 12 14 14 12 12 11 10 11 11 9 12 15 15 14 14 14 14 12 14 17 17 17 16 12 11 12 11 11 12 12 13 11 12 16 19 22 21 15 9 6 4 6 9 11 11 10 9 7 9 9 6 4 6 4 5 10 13 12
14 14 15 16 16 17 17 17 16 15 15 14 12 10 9 10 10 8 9 10 11 12 9 6 4 3 9 13 13 13 15 15 12 11 11 10 10 10 9 9 11 12 14 14 14 15 14 15 17 17 19 19 17 15 13 13 15 14 14 14 13 11 11 14 19 21 20 17 13 10 10 10 10 9 7 6 4 4 7 7 5 5 5 5 5 7 10
14 15 15 15 16 16 16 16 16 16 15 14 12 11 10 10 10 8 8 9 10 12 10 8 8 8 9 12 15 15 14 15 16 14 13 13 11 11 11 11 9 8 10 12 13 14 14 15 17 18 18 18 19 18 16 17 18 17 15 16 15 13 12 12 14 14 15 17 16 14 14 14 13 14 12 8 4 1 3 4 4 4 3 3 3 4 8
14 15 16 16 16 16 16 16 16 16 16 14 13 13 12 11 9 8 9 9 10 11 9 8 9 11 11 11 14 15 14 16 17 15 14 15 13 11 11 11 10 8 8 10 11 11 12 13 14 15 16 17 17 16 15 17 18 17 17 16 14 16 16 15 15 11 11 16 16 13 11 8 10 16 18 14 10 9 7 7 5 3 2 0 1 3 4
15 16 16 17 17 17 17 17 17 16 16 16 15 15 14 12 11 10 9 9 10 10 8 8 10 12 12 11 10 11 11 12 11 11 12 13 13 12 11 9 9 8 8 9 10 10 10 10 10 11 11 11 13 13 14 15 15 16 16 15 15 17 16 15 16 12 10 15 15 11 8 6 9 17 20 19 18 17 15 14 13 12 11 9 7 7 6
15 16 16 17 17 18 18 17 18 18 17 17 17 17 16 15 13 11 9 8 8 9 8 8 10 11 12 12 11 10 9 9 9 9 9 10 11 11 9 7 7 7 7 7 7 8 8 8 7 8 8 7 8 10 12 14 14 13 13 11 13 17 17 15 15 10 8 12 13 8 6 8 12 16 18 20 21 20 17 15 14 13 13 13 12 11 10
15 16 17 17 17 18 18 18 19 19 19 18 18 17 17 15 14 12 11 8 8 8 8 7 8 8 10 10 10 11 10 8 7 7 6 6 7 8 7 5 6 6 6 5 6 6 6 5 5 5 6 6 6 8 10 12 12 11 11 8 7 12 16 15 12 8 7 11 13 7 3 6 11 13 13 14 17 17 15 13 13 14 13 13 14 14 13
15 16 17 17 18 18 19 19 19 19 19 19 18 18 17 15 14 13 11 10 9 9 7 6 6 6 6 7 7 9 9 8 7 6 4 3 3 4 4 4 4 6 6 5 4 4 4 5 5 5 6 6 7 9 11 12 13 12 11 8 6 9 12 11 9 8 7 9 11 7 1 3 9 12 11 13 15 16 15 13 13 14 14 13 14 14 14
15 16 17 17 18 19 20 20 20 20 20 19 19 18 17 15 14 13 12 11 10 10 9 8 7 6 5 5 6 5 5 5 5 5 5 4 2 1 1 2 2 3 4 4 4 4 5 6 7 7 7 7 6 5 6 8 10 13 15 15 14 12 12 11 10 11 10 9 9 7 4 4 10 13 12 13 13 15 15 12 11 14 14 13 13 13 13
15 17 17 18 19 20 20 21 21 21 21 20 20 18 17 16 14 13 14 12 8 9 11 10 10 9 7 6 6 5 4 4 3 3 3 4 3 2 1 2 2 2 3 3 2 3 5 6 7 7 7 6 5 5 5 4 4 7 11 13 13 12 13 13 13 13 14 13 11 10 7 7 11 14 15 14 13 14 13 10 10 14 15 13 13 13 13
15 17 18 18 19 20 21 21 22 22 21 21 20 19 17 17 16 15 15 12 9 11 13 11 10 10 8 7 6 5 5 5 4 3 3 5 5 4 3 2 3 3 2 1 0 1 2 3 5 6 4 5 6 4 4 4 4 2 4 6 8 11 13 14 14 13 15 16 14 9 5 7 11 14 15 16 16 15 12 8 11 16 15 13 15 15 15
15 16 17 18 19 20 21 21 22 22 22 21 21 20 19 18 18 17 16 13 11 13 14 11 9 9 7 7 7 7 7 6 6 5 4 5 6 5 4 2 1 2 1 2 2 2 2 2 3 2 2 4 6 3 3 4 3 3 3 4 5 8 10 12 14 13 13 15 15 7 3 6 10 11 13 17 17 15 11 8 12 17 16 16 17 17 17
14 16 17 18 19 19 20 21 21 21 22 22 21 20 20 19 19 18 17 14 13 15 14 12 10 9 8 9 8 7 7 7 7 7 6 5 5 5 5 5 3 1 2 3 3 3 3 2 3 3 1 1 4 3 2 3 3 3 3 3 3 4 6 8 11 11 11 13 13 7 3 6 9 9 12 15 13 10 10 11 13 16 17 18 19 18 19
13 14 16 17 18 18 19 20 20 21 21 21 21 21 21 20 20 19 18 16 16 16 15 14 13 12 11 10 9 8 7 7 7 7 7 6 5 5 6 6 5 3 3 3 3 4 4 4 2 3 2 2 3 3 3 4 4 4 4 3 2 2 3 5 5 7 9 12 12 7 3 5 8 8 10 14 13 10 11 12 13 14 16 19 19 19 20
12 13 15 16 16 17 18 19 19 20 20 20 20 20 21 20 20 19 19 18 16 15 15 15 14 14 12 11 10 9 7 7 7 6 6 7 7 6 5 4 5 4 4 5 4 4 4 4 3 3 3 2 3 4 5 5 4 4 5 4 3 2 3 3 2 4 6 7 7 6 4 7 10 10 10 15 18 15 11 10 12 14 16 18 19 20 20
11 12 13 15 15 16 17 18 18 18 19 19 19 19 20 19 19 19 18 17 16 15 15 15 15 15 14 12 12 11 9 8 8 7 7 7 6 6 5 4 4 4 4 5 5 3 3 4 3 4 3 3 3 5 5 4 2 2 4 4 2 2 3 3 2 4 4 2 3 5 5 7 11 12 12 15 19 18 14 11 12 15 16 17 19 20 20
10 11 12 13 14 15 16 16 17 17 18 18 18 18 18 18 18 18 17 16 16 15 15 16 15 15 14 13 13 13 11 9 8 7 7 7 6 5 4 3 3 3 3 4 4 4 4 4 4 4 4 4 5 5 3 3 3 3 3 2 3 3 3 2 2 3 3 3 3 4 4 5 8 10 11 12 14 15 14 12 13 14 16 18 19 20 20
8 9 11 12 13 14 14 15 15 16 16 17 17 17 17 17 17 17 16 15 15 14 14 14 14 13 13 13 13 13 12 11 9 8 8 8 6 4 3 2 2 2 2 2 3 4 4 4 4 4 4 5 5 4 3 3 4 4 3 2 2 3 2 2 3 3 3 3 4 5 5 5 6 7 7 8 9 10 11 11 12 12 14 15 16 17 18
7 8 9 10 11 12 13 14 14 15 15 16 16 16 16 16 16 15 14 14 13 12 11 11 11 11 12 13 12 12 12 12 11 10 9 8 6 5 3 2 1 1 1 1 2 3 3 3 3 3 3 5 4 3 4 4 4 5 5 3 2 3 3 2 3 4 4 4 6 6 6 6 6 6 5 6 7 7 8 9 9 9 10 11 12 13 15
6 7 8 9 11 12 12 13 14 14 14 15 15 15 15 15 15 14 13 12 11 10 9 8 9 10 11 11 11 11 12 11 11 11 11 9 8 7 5 4 3 0 1 1 2 3 3 3 3 3 2 4 4 4 4 5 5 5 4 4 5 4 3 3 4 4 4 5 7 6 5 5 5 5 5 5 6 7 7 7 8 9 10 11 12 14 15
5 7 8 9 10 11 12 13 13 14 14 14 14 14 14 14 14 13 12 11 10 8 7 6 7 9 10 10 10 10 11 11 11 11 11 10 9 9 9 9 6 3 2 1 1 2 3 2 3 4 4 4 4 4 4 5 5 4 2 4 5 3 2 4 5 5 4 5 7 6 3 2 4 6 6 7 7 8 8 9 10 11 12 13 15 16 17
6 8 9 10 11 11 12 13 13 14 14 13 14 14 13 13 13 12 11 11 9 6 5 4 5 6 7 8 9 10 10 10 10 10 10 9 10 10 10 10 9 7 5 4 4 4 4 2 2 3 4 4 3 2 2 2 3 3 3 3 4 4 4 5 5 5 5 6 6 7 4 3 4 6 7 8 9 9 10 11 12 14 14 15 16 17 18
8 9 10 11 11 12 13 13 14 14 14 14 14 13 13 12 11 10 10 9 9 7 5 4 4 4 5 6 7 8 9 9 9 9 9 8 8 9 10 10 10 9 7 7 7 5 3 2 2 3 3 4 3 2 1 2 2 3 3 4 4 4 6 6 5 6 6 6 6 7 6 4 5 8 9 10 11 11 12 13 14 15 16 16 16 17 17
9 10 11 12 12 13 13 13 14 15 15 15 14 13 13 12 10 9 8 8 8 7 5 4 2 2 4 5 5 6 7 8 8 8 8 7 6 7 8 9 10 9 9 8 6 5 4 3 2 1 1 3 4 3 2 3 3 3 4 4 3 4 5 6 6 6 5 5 5 7 7 7 9 10 11 12 12 12 13 14 15 15 16 16 17 17 18
11 11 12 13 13 14 15 15 15 16 16 15 14 12 12 11 10 8 7 7 7 6 4 3 1 1 4 5 4 5 7 8 8 8 7 6 5 5 6 7 8 8 7 5 4 5 5 4 2 2 2 3 5 4 2 3 4 5 5 5 5 5 5 5 6 5 5 5 6 6 8 8 9 10 11 13 14 14 15 16 16 16 16 17 17 17 17
11 12 13 13 14 15 16 16 16 16 15 15 13 12 11 10 9 7 6 6 6 4 3 2 1 1 3 4 5 5 6 8 9 9 8 6 5 5 5 5 6 6 5 4 3 4 4 3 3 3 2 3 6 5 3 3 4 6 7 6 6 5 5 5 6 6 5 5 5 5 6 8 9 10 11 13 14 15 15 16 16 16 16 16 16 16 16
12 13 14 14 15 16 16 16 15 15 15 14 12 11 10 9 8 6 5 5 5 3 2 2 2 2 1 3 5 6 6 7 8 9 8 7 6 5 5 5 5 5 5 3 2 1 3 4 4 2 2 3 5 3 2 3 4 5 7 6 6 7 7 7 7 6 6 5 5 4 5 8 10 9 10 11 11 11 12 12 13 14 14 15 15 15 15
13 14 14 14 14 14 15 16 15 15 14 12 11 10 9 7 6 5 4 4 3 2 2 3 4 3 2 3 4 5 6 8 8 7 6 7 7 5 5 6 5 4 3 1 1 2 2 2 1 1 2 2 3 2 2 2 3 4 5 6 7 9 10 9 8 7 7 6 6 7 8 10 11 10 10 9 9 9 10 11 12 13 14 14 15 14 13
13 13 13 13 14 14 15 16 14 13 12 10 9 8 7 6 5 4 3 2 2 3 3 4 6 5 4 4 3 3 6 8 9 8 7 7 7 6 5 5 4 3 2 1 2 2 3 3 1 1 3 3 1 0 1 3 4 5 5 6 7 9 10 10 9 9 9 8 9 10 11 12 13 12 11 10 10 10 10 11 12 12 13 13 12 10 9
11 12 12 13 14 15 15 14 12 10 9 7 7 6 5 4 4 2 2 2 3 4 4 6 7 6 5 4 2 2 5 7 8 8 8 8 7 8 7 5 3 4 4 2 2 3 5 5 3 3 5 5 2 2 4 4 4 5 6 7 9 9 9 8 8 10 10 10 10 12 13 14 15 14 12 11 10 10 10 11 11 11 10 8 7 6 6
11 12 13 14 15 14 13 10 8 7 5 5 4 3 2 2 2 1 2 3 4 4 5 7 6 5 5 4 2 3 4 5 6 7 8 8 7 8 9 7 4 6 5 3 4 5 5 6 4 4 5 5 4 6 8 8 8 8 7 9 11 11 10 9 10 11 11 11 11 13 14 15 16 15 12 10 10 9 10 10 9 7 6 4 4 4 5
12 13 13 14 13 10 8 6 5 4 3 2 2 1 0 1 2 3 4 4 5 5 5 6 5 4 3 2 2 3 3 5 6 6 7 8 7 8 9 8 7 7 5 3 5 5 4 5 5 4 5 6 7 8 9 8 10 11 10 11 12 11 11 11 12 11 11 11 12 14 15 16 16 14 11 9 9 9 8 7 5 4 3 2 3 5 6
12 12 12 11 8 6 4 3 2 2 1 1 0 1 2 3 5 5 5 5 5 5 4 4 4 3 1 1 2 4 5 6 5 5 7 7 6 6 8 9 9 8 5 4 4 5 4 4 5 5 4 4 5 8 8 8 8 10 11 12 12 11 11 12 12 11 11 11 12 14 15 16 14 12 9 8 8 7 5 4 5 4 2 2 4 6 7
10 10 8 6 4 2 1 1 1 1 0 1 2 3 4 5 6 7 7 6 5 4 3 3 3 2 2 2 2 5 7 6 5 5 6 7 7 8 9 9 9 8 4 2 4 6 5 4 5 4 3 3 6 9 9 8 7 8 10 10 10 10 11 11 12 12 12 13 13 14 14 13 11 9 7 7 7 5 5 6 5 3 2 4 5 6 7
8 6 4 3 2 1 0 0 1 1 2 3 4 4 6 6 6 7 8 6 4 3 2 2 1 1 3 4 4 6 7 7 9 9 7 7 9 10 9 9 9 7 3 3 6 8 7 4 5 4 4 7 9 8 7 7 7 7 7 7 8 10 11 12 13 13 13 13 14 14 13 12 9 7 6 6 5 6 9 7 4 2 4 5 5 5 6
5 3 3 2 1 1 1 1 2 2 4 4 4 5 6 7 7 7 6 4 4 3 2 0 1 2 5 6 6 7 8 9 10 8 6 7 10 10 9 9 8 4 3 6 8 8 6 5 5 4 5 8 9 7 6 7 7 7 7 8 9 10 12 13 13 13 13 13 14 14 13 11 8 6 5 5 5 10 10 6 3 3 3 4 4 5 5
3 3 3 3 2 2 2 2 2 3 4 4 4 5 6 6 6 6 4 3 3 2 1 2 3 5 6 6 7 8 9 10 9 7 5 8 10 10 9 9 6 4 6 9 8 5 6 6 5 4 5 8 7 6 5 7 8 8 9 10 11 12 13 14 14 14 13 13 13 13 12 11 8 6 5 5 8 12 10 5 3 3 2 2 3 3 4
3 4 4 4 3 3 3 2 2 3 4 4 5 5 5 5 5 4 3 2 1 1 2 4 5 5 5 6 8 9 9 9 10 8 7 8 9 8 6 5 5 6 9 8 5 5 6 7 6 5 5 6 6 6 5 7 9 10 10 11 12 13 14 15 15 15 14 13 13 12 12 10 7 6 5 5 11 14 9 5 4 2 1 1 2 2 3
5 5 5 4 3 3 3 3 3 4 5 5 5 5 5 5 4 3 2 2 2 3 4 6 7 7 6 7 9 9 8 8 9 7 6 7 7 6 5 6 7 8 7 5 5 6 6 5 4 4 4 6 6 6 5 5 7 10 11 12 12 13 14 16 16 15 13 12 12 12 12 9 7 6 5 8 13 14 9 6 4 3 2 1 0 2 3
6 6 5 5 4 4 4 5 4 5 5 5 5 5 4 3 3 3 2 2 3 5 6 7 8 9 8 7 8 9 9 8 7 6 8 8 7 6 7 9 9 6 4 4 6 6 5 4 4 3 5 7 7 6 5 5 5 7 9 11 12 12 14 15 15 15 13 12 11 11 11 9 7 6 6 9 15 15 10 7 5 4 3 3 2 2 3
7 7 6 6 5 4 5 6 5 5 5 5 5 5 4 3 3 4 4 5 6 7 8 9 10 10 10 10 9 8 8 8 8 9 9 8 5 6 9 10 7 4 4 6 6 6 6 5 4 3 6 9 8 7 7 7 5 6 8 9 10 11 13 14 15 14 13 12 11 10 11 9 7 7 7 10 16 17 12 8 7 6 5 4 3 2 3
8 8 7 7 6 6 6 6 5 4 5 5 5 5 5 4 5 6 6 7 8 10 11 11 11 10 9 10 10 8 8 10 11 10 10 8 6 6 7 6 5 6 7 7 7 6 5 5 4 6 8 10 10 9 9 8 7 8 9 9 10 11 13 14 14 14 13 12 12 11 10 9 8 8 8 10 16 18 14 10 8 7 6 6 5 3 3
8 8 8 8 7 7 7 6 4 4 5 5 5 5 5 5 6 7 8 8 10 12 13 13 12 10 9 10 11 11 10 9 8 8 9 8 6 5 5 6 7 8 7 6 7 7 6 6 8 10 12 12 12 12 12 11 10 9 10 12 13 13 14 15 16 15 15 14 14 12 10 9 8 8 8 10 15 19 16 12 9 8 8 7 6 5 4
7 8 8 7 7 7 7 6 5 5 6 6 6 6 6 7 8 9 9 10 12 13 13 12 11 10 10 12 14 13 11 9 7 6 8 8 7 6 7 8 8 8 7 6 7 9 9 10 12 14 15 16 16 15 13 12 11 11 12 13 14 14 16 17 18 18 17 16 15 14 12 9 8 8 9 10 14 19 19 15 11 9 9 8 7 7 5
8 8 8 8 8 8 7 6 5 5 5 6 7 8 9 9 10 10 10 10 12 12 10 9 9 10 12 13 12 10 10 10 9 9 9 9 7 8 9 9 9 8 9 10 11 12 12 14 16 17 18 19 19 17 14 13 12 12 13 14 14 15 15 16 18 19 19 18 16 15 13 10 7 7 8 9 12 16 19 18 14 12 10 10 9 8 7
11 10 11 10 10 10 9 8 8 8 8 9 10 11 11 11 11 10 10 11 12 11 9 10 11 11 11 10 10 10 10 10 11 11 12 10 8 8 10 10 10 11 13 15 15 15 15 16 18 19 19 19 19 18 18 16 14 13 14 15 16 16 15 16 17 19 19 18 17 15 14 11 8 7 7 9 11 14 17 19 18 16 13 11 10 9 8
Wind_Direction
345 345 346 347 348 347 345 345 345 345 349 350 350 355 -0 359 351 340 334 315 279 199 209 233 225 214 223 229 227 228 230 229 226 229 231 231 235 239 240 241 241 243 245 244 243 242 238 230 224 220 213 220 223 220 221 222 219 219 215 215 222 224 228 236 229 219 224 236 235 231 230 225 222 225 223 222 226 225 230 242 229 211 218 222 232 236 194
349 348 349 351 351 350 349 349 349 353 359 357 359 7 8 5 5 358 354 349 319 209 211 226 219 218 226 227 227 227 223 221 219 222 225 224 228 234 236 238 239 238 240 241 239 237 236 235 227 216 211 225 226 221 224 225 223 226 227 225 222 217 224 236 229 216 216 225 230 229 227 223 218 222 223 224 227 227 228 236 241 237 228 223 232 233 171
351 351 352 353 355 355 353 354 356 1 4 2 10 17 11 7 9 360 0 11 314 236 233 237 227 226 225 216 215 218 220 221 216 214 224 227 228 230 233 237 237 236 237 238 237 234 229 231 231 219 218 228 228 221 221 221 220 222 226 229 223 208 202 225 234 229 218 217 221 214 206 205 212 220 223 222 223 224 225 229 234 237 228 221 233 225 165
353 354 355 356 358 359 360 0 1 6 7 6 18 23 15 13 17 2 4 17 2 274 247 250 241 227 216 213 216 210 209 222 219 217 223 224 225 228 229 232 231 230 230 231 235 233 226 226 226 211 209 222 222 218 222 221 220 223 225 229 227 213 202 213 234 266 278 269 231 191 179 174 186 201 208 212 218 219 220 227 234 234 222 216 226 210 169
358 357 357 359 1 3 7 8 6 9 8 7 21 25 17 22 30 20 21 25 13 13 329 271 244 224 211 206 212 206 201 209 210 211 216 214 216 224 228 227 226 225 223 223 230 232 227 227 224 210 207 219 218 213 217 221 222 222 219 223 229 225 216 215 222 238 11 73 140 166 164 158 150 158 174 188 201 207 210 225 237 231 226 219 203 179 172
2 0 360 2 4 5 10 12 13 15 10 10 25 25 18 28 37 33 35 34 23 13 356 0 342 222 209 200 198 192 192 199 199 200 208 212 211 216 224 224 224 225 222 220 224 226 223 225 224 215 204 202 199 200 208 214 218 220 216 217 226 225 219 218 220 220 202 153 161 163 163 163 158 157 160 165 175 183 190 210 213 201 219 211 165 167 185
6 6 5 5 6 8 11 14 16 19 16 19 27 22 16 30 37 35 37 35 29 23 10 14 26 201 193 186 184 184 186 191 192 191 191 196 202 207 214 218 221 225 221 217 218 216 211 212 215 211 200 186 172 178 194 198 199 207 214 214 216 214 213 217 220 221 223 230 232 212 191 178 165 157 146 137 150 166 168 168 160 157 151 136 156 175 194
9 12 13 10 10 11 12 14 16 18 19 23 27 21 21 31 33 33 37 35 35 35 34 41 57 135 162 155 154 169 183 179 168 171 171 164 174 183 180 185 199 208 208 209 214 212 208 206 203 201 196 187 180 181 185 188 188 192 206 215 216 214 215 217 216 216 224 234 238 235 230 221 206 192 171 142 124 138 146 139 124 117 106 106 135 170 184
13 17 19 16 15 14 14 16 16 18 21 23 24 24 29 33 32 34 40 43 47 46 44 59 85 109 124 124 124 133 154 153 136 133 140 138 142 153 152 145 143 163 189 198 202 203 204 201 194 192 191 189 191 193 193 195 190 186 203 219 219 223 224 203 190 198 212 219 223 225 225 226 226 224 218 209 211 203 154 144 127 115 96 83 100 154 183
18 21 22 21 20 18 18 19 19 22 26 26 29 32 36 37 36 40 46 51 56 55 51 60 82 93 95 103 113 118 128 135 128 123 126 125 125 132 136 132 124 129 160 171 172 177 181 182 182 185 188 187 189 192 193 197 194 193 207 218 216 223 227 201 184 192 195 194 201 205 205 218 226 219 214 211 220 232 238 244 240 232 260 306 152 201 211
24 25 24 25 25 24 24 25 26 30 32 34 39 41 42 43 43 46 50 54 60 64 64 69 73 73 74 82 101 111 115 120 124 127 127 122 120 124 127 129 131 139 147 147 150 156 158 163 169 174 178 178 178 179 178 182 189 194 204 211 209 215 220 205 199 208 195 188 197 200 198 222 231 220 216 218 228 237 242 246 250 252 257 259 254 256 259
29 29 28 28 29 28 29 30 32 36 37 39 42 43 44 45 45 50 57 57 63 71 71 72 75 71 65 69 78 88 100 115 130 139 140 131 122 122 126 131 137 149 153 147 151 156 154 157 164 169 176 177 176 177 170 167 169 171 173 185 201 207 207 203 203 202 177 179 192 199 205 220 227 227 225 226 229 231 231 232 235 238 241 241 243 246 248
33 33 32 32 33 32 33 34 36 37 38 39 41 42 44 43 44 52 60 57 61 74 69 62 71 71 64 64 68 72 78 96 121 133 138 133 119 114 125 140 149 159 164 159 163 168 168 177 193 203 205 208 215 216 203 188 182 173 162 155 173 196 202 202 198 187 172 181 190 198 213 215 223 229 227 223 220 215 213 216 218 221 224 225 227 230 232
38 38 36 36 37 37 37 38 39 39 39 38 39 41 42 43 46 53 61 58 57 64 63 54 52 51 50 50 53 57 59 67 81 80 66 76 92 96 117 146 165 173 179 179 172 165 173 193 212 221 212 216 233 242 240 230 221 215 208 201 197 198 195 190 182 181 189 193 191 192 193 213 224 228 223 218 213 205 203 207 212 218 222 223 225 227 229
43 43 41 40 40 40 40 40 40 41 41 39 40 42 42 46 51 56 61 59 54 58 62 59 51 42 35 29 30 36 43 52 63 50 25 26 42 50 115 162 184 192 197 200 191 188 194 196 202 204 198 200 207 210 221 232 230 227 226 227 231 229 214 206 207 206 206 204 196 200 213 213 216 219 218 216 212 207 207 207 213 223 225 224 225 225 224
48 48 46 44 43 42 42 42 41 41 40 40 41 43 44 48 55 61 63 59 56 62 65 61 55 51 43 30 24 25 27 26 38 33 345 328 332 326 251 210 218 226 218 212 217 216 208 205 212 216 208 199 184 160 163 181 197 216 221 220 225 225 214 214 222 215 207 211 216 218 216 199 201 208 212 213 214 212 207 204 217 227 227 224 221 216 215
52 50 49 48 46 44 44 43 43 42 40 40 41 42 43 46 52 59 63 60 62 70 68 60 54 53 46 38 36 37 34 29 32 36 335 320 328 320 296 272 247 243 233 199 192 209 191 193 212 222 218 195 183 171 176 171 143 159 201 195 200 208 206 211 221 217 208 215 225 227 214 200 203 207 209 209 209 206 201 200 216 221 223 222 214 207 207
55 52 50 49 47 46 45 44 44 43 41 41 41 41 41 43 47 54 59 59 62 71 71 64 57 56 52 49 48 45 46 47 43 37 21 359 352 345 339 336 281 245 206 136 102 103 121 144 172 189 224 200 184 174 179 167 128 114 151 158 184 203 204 209 221 224 216 219 227 228 199 209 214 211 209 206 200 199 199 203 211 213 215 218 214 208 207
57 54 51 49 47 46 45 45 44 43 42 40 40 39 40 42 44 49 55 56 58 65 68 65 62 63 62 60 59 56 56 57 51 45 38 20 8 17 29 35 52 115 145 136 116 111 106 105 136 130 75 151 162 151 159 163 143 124 132 139 169 197 200 207 221 231 227 223 227 224 190 209 214 210 208 201 191 195 209 211 211 211 210 214 214 210 210
56 53 50 47 45 44 43 43 42 42 41 40 39 38 38 39 41 45 49 50 52 56 58 56 56 60 62 63 66 66 64 62 57 54 51 40 34 46 49 42 46 79 119 119 119 129 114 89 102 125 105 115 136 126 119 136 150 146 129 125 131 156 191 207 215 224 228 228 228 228 210 202 198 192 198 196 192 204 219 221 220 214 207 211 214 212 212
55 51 48 45 42 40 40 40 39 40 40 39 38 38 37 36 37 40 43 46 48 51 53 51 50 53 55 57 59 62 64 65 63 61 59 51 48 58 67 55 50 66 107 107 100 125 130 109 98 112 118 117 123 131 130 124 133 155 148 140 126 139 183 205 201 207 223 233 229 211 180 181 182 180 190 199 202 210 216 218 220 214 208 211 215 215 218
54 50 46 43 40 37 36 35 35 36 37 36 37 37 36 35 35 36 39 42 44 47 50 48 46 47 49 51 53 55 55 55 53 54 60 61 56 59 70 70 59 64 100 107 95 96 114 115 108 107 117 120 117 135 149 140 117 143 154 153 150 158 171 169 160 180 189 199 201 190 184 189 192 193 198 201 205 212 215 214 214 214 215 217 217 218 222
52 47 43 41 38 35 33 31 30 30 31 31 33 34 35 34 34 35 36 38 39 41 43 43 41 41 43 47 49 49 49 48 46 45 53 58 52 45 54 69 71 70 91 112 122 128 128 132 135 127 131 142 134 132 148 142 118 121 136 159 181 183 173 149 129 146 150 142 153 159 162 180 191 197 201 203 209 217 221 222 219 218 219 221 221 223 225
49 44 38 35 33 32 30 28 27 26 25 26 27 29 31 31 31 32 33 34 36 38 38 40 41 41 44 46 45 43 43 44 43 41 47 55 55 46 43 54 67 85 108 127 146 148 141 140 143 140 144 147 140 142 159 147 133 131 117 108 153 170 162 129 115 124 127 136 146 143 142 154 171 184 194 200 209 215 216 218 218 219 223 227 230 232 234
41 35 31 28 25 24 23 22 22 21 21 21 20 22 24 25 26 28 30 33 36 39 40 39 39 40 43 44 41 38 38 38 38 39 41 48 58 59 53 44 49 126 171 184 173 161 149 132 111 105 152 159 143 142 159 162 161 152 136 132 170 169 146 123 118 122 132 150 156 150 146 151 156 163 176 188 200 207 212 217 223 228 235 241 246 249 251
25 21 18 15 13 13 13 12 12 14 14 14 14 14 15 16 17 21 25 27 32 39 41 35 32 35 41 43 39 37 36 33 33 35 36 40 50 57 55 50 41 29 213 223 197 174 160 147 125 113 163 178 157 146 156 162 159 148 147 180 188 169 152 158 151 136 135 152 160 154 149 169 182 183 191 205 219 230 238 246 250 254 258 261 263 265 266
2 1 0 360 359 0 1 0 1 3 4 5 6 6 6 6 8 12 17 22 28 37 39 31 28 33 37 38 38 39 38 34 33 33 33 36 45 50 53 52 48 52 74 85 152 119 93 112 156 163 176 177 160 155 160 154 141 129 150 188 177 153 155 166 157 150 149 161 175 173 154 180 214 216 223 234 243 252 258 262 265 266 268 269 269 270 271
338 341 343 345 346 347 349 350 350 352 354 355 355 356 357 358 359 2 6 13 22 35 39 31 30 32 30 29 34 39 37 33 32 32 31 34 40 42 45 49 50 56 74 84 89 93 96 120 174 177 175 165 144 147 168 151 134 136 167 186 175 167 174 164 157 170 165 151 173 191 176 154 200 224 241 251 257 262 264 265 266 267 268 268 268 270 272
324 328 330 332 335 337 339 342 341 341 343 344 344 346 346 348 351 353 356 2 10 19 31 36 35 33 26 22 29 37 37 31 30 29 28 31 36 35 35 42 49 55 67 77 82 86 95 136 160 171 188 178 151 134 149 151 143 152 183 209 207 190 185 178 169 174 163 139 161 199 206 207 225 241 252 258 261 263 264 265 266 266 268 269 269 270 272
315 320 322 324 327 328 331 334 333 331 333 333 334 337 338 338 342 345 348 353 357 5 27 50 43 18 21 23 25 31 31 27 24 23 25 30 32 28 29 35 39 45 55 60 66 72 65 58 69 92 173 159 134 121 134 153 152 151 162 183 186 178 186 188 177 171 171 168 187 215 230 240 248 255 260 264 264 265 266 268 270 271 273 275 275 276 278
309 314 317 319 321 322 324 325 324 323 324 325 326 328 328 329 331 334 340 346 347 354 22 54 94 0 19 25 30 32 26 21 19 18 23 32 32 26 25 27 28 36 45 42 39 57 61 53 46 43 53 105 113 113 128 144 152 159 158 157 161 171 186 198 200 203 210 216 228 243 252 258 264 268 271 272 271 270 271 273 274 275 278 280 282 285 288
307 310 313 314 316 317 316 318 320 320 320 320 321 320 320 322 324 327 333 338 340 350 18 43 103 93 32 32 42 43 32 24 22 22 22 25 25 20 15 18 21 22 22 23 37 48 48 58 77 68 59 95 105 106 117 128 145 168 170 164 172 192 206 214 219 224 230 236 246 261 274 283 285 281 277 276 276 276 276 275 275 276 278 280 285 289 292
305 307 309 310 311 312 313 315 318 318 316 316 316 316 317 318 318 321 327 333 339 358 37 78 112 124 86 52 47 44 41 34 26 21 17 12 12 10 1 0 7 6 5 17 51 30 18 41 66 57 36 83 99 107 142 151 162 183 183 180 192 205 210 217 224 228 236 246 259 281 301 308 309 301 288 281 280 280 279 279 280 281 283 286 289 291 290
302 304 307 309 311 312 313 315 316 314 312 312 312 312 313 311 310 319 330 335 353 32 71 102 113 117 109 88 57 41 48 46 33 23 17 11 12 12 1 356 1 3 359 353 325 319 342 9 36 313 330 37 87 125 185 195 205 207 196 195 204 206 209 220 233 240 245 256 273 291 303 312 317 315 302 289 285 288 290 290 289 289 290 290 289 287 285
302 305 308 311 313 314 313 313 312 309 309 309 308 308 310 308 311 325 340 356 51 81 93 109 118 117 105 97 78 43 47 45 34 28 29 27 24 23 21 18 7 348 326 312 321 302 282 290 306 252 267 290 322 7 228 225 222 220 211 209 209 208 213 225 242 251 257 267 280 293 304 313 317 317 309 298 293 295 296 295 293 291 289 285 283 283 286
304 308 310 311 313 313 311 310 309 309 308 306 305 306 307 308 320 342 8 46 83 106 118 117 119 120 117 114 96 31 39 34 23 20 24 29 27 22 28 40 11 331 335 340 310 273 264 277 293 263 261 278 290 242 236 225 212 215 217 215 214 213 216 228 247 259 267 274 282 292 303 311 315 314 308 300 297 298 297 296 293 287 282 277 276 283 293
305 307 309 310 312 312 311 310 310 309 308 303 302 307 308 314 347 44 84 88 91 110 125 123 122 130 131 121 66 20 26 16 6 6 10 14 13 10 21 33 11 348 355 342 292 281 276 280 283 268 264 272 260 245 243 233 223 223 222 220 224 231 238 248 255 261 269 277 283 292 302 310 312 310 303 296 296 297 296 293 285 273 263 262 276 293 304
306 307 309 311 312 311 311 313 312 309 311 310 306 316 0 83 100 105 108 104 104 116 129 130 135 150 140 103 13 349 348 352 358 359 355 357 360 359 3 8 2 359 1 326 303 314 316 308 308 295 273 268 261 256 253 243 235 235 234 233 237 247 257 259 255 257 267 278 287 296 305 312 313 308 298 291 292 294 290 278 256 232 221 248 289 301 307
308 309 310 311 312 309 309 318 321 317 323 336 31 103 105 111 116 118 117 116 118 127 138 145 161 180 180 4 331 317 323 338 353 350 340 345 352 348 346 347 347 352 356 331 328 353 356 323 320 329 319 292 275 266 260 250 241 238 239 241 247 255 260 257 252 254 265 275 286 297 305 310 309 303 292 285 287 287 270 230 199 187 205 277 294 301 304
310 311 309 304 299 298 307 334 341 332 37 92 108 116 122 126 129 130 129 126 126 133 143 156 187 241 304 334 325 320 326 334 335 329 328 333 336 337 339 336 335 343 352 314 317 348 354 317 309 328 328 276 270 271 267 259 247 240 238 240 245 250 252 251 252 258 267 276 286 297 304 306 301 290 282 283 282 259 212 190 181 191 266 288 297 303 304
310 307 296 279 262 263 312 54 88 115 109 111 117 125 129 135 138 135 134 137 149 161 157 139 154 290 318 326 323 322 324 324 324 326 327 326 330 335 337 331 330 338 338 290 314 339 344 315 301 315 294 272 275 279 271 256 249 247 242 237 235 238 244 249 254 263 273 283 292 301 307 307 298 283 279 284 264 205 185 181 187 240 282 294 304 309 305
299 280 260 246 217 188 143 101 118 126 119 119 127 129 128 134 141 142 141 152 171 179 182 188 261 296 314 323 327 327 325 324 328 331 326 319 326 332 332 330 334 336 295 297 318 333 328 306 308 319 299 289 294 297 275 253 248 245 244 240 236 238 244 251 258 267 277 287 296 305 311 309 295 279 283 279 223 188 181 185 209 252 281 300 311 313 309
261 231 222 219 195 163 144 130 136 139 134 136 143 141 136 141 147 144 143 158 171 182 251 296 313 322 326 331 333 330 328 328 332 334 320 315 323 328 326 327 330 315 300 308 317 318 304 299 297 297 297 302 310 308 281 259 250 245 245 247 247 247 249 254 262 270 279 288 297 308 314 308 288 273 283 260 204 188 184 193 217 236 273 308 320 327 327
214 209 210 207 191 169 157 150 149 152 152 154 155 150 145 147 145 137 141 175 193 243 295 311 326 331 327 326 330 330 328 327 328 327 319 317 322 322 317 313 307 306 311 313 302 289 297 300 291 284 300 313 316 309 287 264 252 248 248 250 253 254 255 259 267 273 279 287 298 311 318 309 281 266 273 233 199 190 189 198 208 210 240 307 333 358 3
204 206 206 199 191 185 180 168 156 154 154 154 151 146 143 147 152 156 178 221 259 297 305 308 315 317 313 316 322 320 316 317 321 318 313 314 313 303 293 297 302 306 311 302 278 284 302 309 298 295 311 317 316 314 304 280 259 252 248 249 254 257 257 261 269 276 280 286 299 317 326 313 277 261 260 222 200 193 194 198 198 196 195 191 87 46 44
209 214 212 205 198 192 182 173 164 158 157 158 161 162 163 170 181 192 217 253 284 301 303 304 310 315 311 309 311 310 309 313 315 308 306 309 302 284 290 302 305 297 282 275 276 280 287 288 280 285 305 312 316 320 315 303 285 265 252 247 249 255 259 263 270 276 281 285 298 320 330 319 284 263 253 219 202 198 198 195 193 193 190 174 138 85 77
212 219 218 212 204 191 182 182 183 183 185 193 203 212 222 231 239 248 261 274 286 296 301 304 309 313 310 305 305 306 307 310 310 305 304 303 289 279 292 300 293 265 265 280 283 283 285 283 274 282 299 302 303 304 302 296 284 271 261 251 247 254 260 265 269 273 277 283 294 313 329 323 293 270 254 220 204 201 199 195 193 194 186 171 153 125 105
211 216 218 216 210 199 193 197 203 204 207 216 226 234 243 253 259 263 270 280 289 296 301 304 308 310 308 304 303 301 298 302 306 304 301 297 283 277 285 284 268 265 278 284 283 287 293 287 276 284 294 294 290 292 294 288 270 257 254 251 252 256 259 262 266 270 276 283 289 302 321 323 297 272 256 226 209 204 201 198 197 195 187 174 164 151 130
208 213 218 220 218 214 212 213 219 227 235 243 247 252 259 270 276 280 286 292 297 300 301 302 303 302 296 294 297 298 295 296 298 297 294 290 280 268 268 268 269 276 281 280 278 284 290 288 285 287 289 289 288 288 289 286 280 267 254 248 249 254 257 260 264 268 273 279 285 294 309 316 297 273 258 234 215 209 205 202 200 199 194 184 175 168 158
209 215 221 223 227 231 234 234 235 242 251 256 257 262 270 279 286 290 295 298 301 304 304 302 302 299 294 292 295 295 288 281 276 276 279 279 268 259 266 273 277 280 282 282 286 289 289 288 288 287 284 285 287 288 286 283 280 273 263 256 252 251 253 256 261 265 269 274 280 289 299 306 296 275 261 244 224 215 211 208 205 206 203 195 186 181 176
227 231 234 238 241 246 249 248 242 237 242 253 263 271 279 284 287 291 295 298 300 302 301 296 295 297 295 293 292 288 281 278 274 271 273 273 264 260 268 277 282 284 283 283 290 295 294 292 294 294 290 287 286 286 287 287 283 275 269 265 258 254 252 252 254 260 265 269 274 282 289 296 295 279 264 251 236 224 217 213 213 212 209 205 201 194 185
241 243 246 250 254 257 258 258 253 247 249 259 271 277 283 285 288 291 296 299 300 298 295 293 296 296 291 287 284 282 279 277 272 271 276 277 268 263 271 277 283 288 291 292 294 295 293 294 299 301 297 291 287 285 286 288 288 284 279 272 262 256 255 253 251 254 259 263 268 273 277 280 287 288 276 261 248 233 223 219 219 219 216 213 211 207 199